DW7888 Weather Reports


Display with metric or nautical units.
time (UTC)temp
F
wind
direction
speed
MPH
gust
MPH
rain 1hr
in
rain 24hr
in
rain mn
in
humidity
%
barometer
mb
20260504202008 78 96 2.0 7.0 0.00 0.00 0.00 36 1012.0
20260504201505 78 324 1.0 7.0 0.00 0.00 0.00 35 1012.2
20260504201005 78 352 1.0 9.0 0.00 0.00 0.00 35 1012.3
20260504200502 77 145 3.0 10.0 0.00 0.00 0.00 35 1012.2
20260504200006 77 105 0.0 10.0 0.00 0.00 0.00 37 1012.3
20260504195508 77 215 2.0 9.0 0.00 0.00 0.00 36 1012.3
20260504195003 77 160 1.0 4.0 0.00 0.00 0.00 35 1012.3
20260504194507 77 129 1.0 5.0 0.00 0.00 0.00 34 1012.4
20260504194003 77 124 1.0 5.0 0.00 0.00 0.00 35 1012.4
20260504193503 76 28 1.0 6.0 0.00 0.00 0.00 37 1012.5
20260504193007 76 24 1.0 6.0 0.00 0.00 0.00 36 1012.5
20260504192506 76 11 0.0 3.0 0.00 0.00 0.00 39 1012.7
20260504192003 76 144 0.0 4.0 0.00 0.00 0.00 36 1012.8
20260504191508 76 339 0.0 4.0 0.00 0.00 0.00 39 1012.8
20260504191012 76 63 1.0 9.0 0.00 0.00 0.00 37 1013.0
20260504190504 76 265 1.0 9.0 0.00 0.00 0.00 37 1013.0
20260504190007 77 126 2.0 5.0 0.00 0.00 0.00 35 1013.0
20260504185510 76 49 0.0 6.0 0.00 0.00 0.00 37 1013.0
20260504185002 75 215 2.0 6.0 0.00 0.00 0.00 38 1013.2
20260504184514 75 349 1.0 4.0 0.00 0.00 0.00 41 1013.3
20260504184010 74 169 1.0 4.0 0.00 0.00 0.00 39 1013.3
20260504183505 73 19 0.0 4.0 0.00 0.00 0.00 41 1013.4
20260504183019 73 24 1.0 6.0 0.00 0.00 0.00 39 1013.3
20260504182509 74 145 0.0 6.0 0.00 0.00 0.00 41 1013.4
20260504182004 74 78 0.0 4.0 0.00 0.00 0.00 37 1013.4
20260504181513 74 126 0.0 3.0 0.00 0.00 0.00 37 1013.6
20260504181008 74 342 0.0 3.0 0.00 0.00 0.00 39 1013.7
20260504180510 73 166 0.0 3.0 0.00 0.00 0.00 36 1013.8
20260504180013 73 44 0.0 9.0 0.00 0.00 0.00 38 1013.9
20260504175507 73 136 0.0 9.0 0.00 0.00 0.00 37 1014.0
20260504175006 73 96 1.0 4.0 0.00 0.00 0.00 38 1014.1
20260504174514 72 174 0.0 4.0 0.00 0.00 0.00 38 1014.0
20260504174012 72 327 1.0 4.0 0.00 0.00 0.00 38 1014.1
20260504173505 72 223 0.0 3.0 0.00 0.00 0.00 40 1014.1
20260504173023 72 248 0.0 4.0 0.00 0.00 0.00 39 1014.1
20260504172509 72 119 0.0 5.0 0.00 0.00 0.00 39 1014.2
20260504172002 72 69 0.0 5.0 0.00 0.00 0.00 36 1014.2
20260504171522 73 130 1.0 4.0 0.00 0.00 0.00 38 1014.3
20260504171012 73 185 1.0 8.0 0.00 0.00 0.00 39 1014.4
20260504170504 73 5 0.0 8.0 0.00 0.00 0.00 38 1014.4
20260504151006 69 238 1.0 4.0 0.00 0.00 0.00 45 1015.5
20260504150507 69 221 0.0 6.0 0.00 0.00 0.00 41 1015.5
20260504141004 63 92 1.0 5.0 0.00 0.00 0.00 50 1015.7
20260504140507 62 38 0.0 3.0 0.00 0.00 0.00 52 1015.8
20260504130507 56 82 0.0 3.0 0.00 0.00 0.00 59 1016.1
20260504110509 49 46 0.0 2.0 0.00 0.00 0.00 68 1016.5
20260504100509 50 355 0.0 0.0 0.00 0.00 0.00 64 1016.3
20260504081524 53 134 2.0 9.0 0.00 0.00 0.00 53 1016.3
20260504081004 53 169 3.0 8.0 0.00 0.00 0.00 53 1016.3
20260504080506 53 195 3.0 9.0 0.00 0.00 0.00 52 1016.3
20260504050509 52 164 1.0 4.0 0.00 0.00 0.00 53 1016.4
20260504045507 52 193 2.0 6.0 0.00 0.00 0.00 53 1016.3
20260504045011 53 193 2.0 6.0 0.00 0.00 0.00 53 1016.3
20260504044537 53 208 2.0 5.0 0.00 0.00 0.00 53 1016.3
20260504044007 53 98 1.0 5.0 0.00 0.00 0.00 53 1016.4
20260504043508 53 178 2.0 5.0 0.00 0.00 0.00 53 1016.4
20260504043033 52 171 2.0 5.0 0.00 0.00 0.00 53 1016.4
20260504042509 52 183 1.0 8.0 0.00 0.00 0.00 54 1016.4
20260504042009 52 162 2.0 8.0 0.00 0.00 0.00 54 1016.4
20260504041529 52 172 3.0 8.0 0.00 0.00 0.00 55 1016.4
20260504041006 52 128 1.0 3.0 0.00 0.00 0.00 56 1016.4
20260504040512 52 161 1.0 5.0 0.00 0.00 0.00 56 1016.3
20260504040013 52 134 1.0 5.0 0.00 0.00 0.00 57 1016.3
20260504035513 52 175 2.0 5.0 0.00 0.00 0.00 55 1016.3
20260504035009 51 163 0.0 3.0 0.00 0.00 0.00 57 1016.4
20260504034512 51 140 1.0 3.0 0.00 0.00 0.00 57 1016.3
20260504034006 51 196 1.0 6.0 0.00 0.00 0.00 56 1016.3
20260504033515 51 159 0.0 6.0 0.00 0.00 0.00 57 1016.4
20260504033016 51 180 0.0 2.0 0.00 0.00 0.00 57 1016.5
20260504032509 51 207 0.0 2.0 0.00 0.00 0.00 57 1016.4
20260504032013 51 145 0.0 3.0 0.00 0.00 0.00 56 1016.4
20260504031515 51 150 0.0 3.0 0.00 0.00 0.00 57 1016.4
20260504031008 51 150 0.0 3.0 0.00 0.00 0.00 59 1016.4
20260504030508 51 133 0.0 3.0 0.00 0.00 0.00 58 1016.4
20260504030016 51 174 1.0 3.0 0.00 0.00 0.00 59 1016.3
20260504025506 51 170 0.0 2.0 0.00 0.00 0.00 59 1016.3
20260504025003 51 184 0.0 2.0 0.00 0.00 0.00 58 1016.4
20260504024505 51 167 0.0 2.0 0.00 0.00 0.00 58 1016.4
20260504024007 51 170 0.0 3.0 0.00 0.00 0.00 58 1016.4
20260504023507 51 140 0.0 3.0 0.00 0.00 0.00 58 1016.4
20260504023004 51 164 0.0 2.0 0.00 0.00 0.00 59 1016.4
20260504022504 50 176 1.0 2.0 0.00 0.00 0.00 60 1016.4
20260504022003 50 113 0.0 2.0 0.00 0.00 0.00 60 1016.4
20260504021504 50 142 0.0 0.0 0.00 0.00 0.00 62 1016.3
20260504021002 50 142 0.0 0.0 0.00 0.00 0.00 63 1016.3
20260504020503 50 142 0.0 0.0 0.00 0.00 0.00 63 1016.3
20260504020008 50 142 0.0 0.0 0.00 0.00 0.00 62 1016.3
20260504015503 50 142 0.0 0.0 0.00 0.00 0.00 63 1016.2
20260504015002 50 142 0.0 0.0 0.00 0.00 0.00 63 1016.1
20260504014507 49 142 0.0 0.0 0.00 0.00 0.00 64 1016.1
20260504014003 50 142 0.0 0.0 0.00 0.00 0.00 63 1016.2
20260504013503 50 142 0.0 0.0 0.00 0.00 0.00 63 1016.2
20260504013009 50 142 0.0 0.0 0.00 0.00 0.00 62 1016.2
20260504012504 50 142 0.0 0.0 0.00 0.00 0.00 61 1016.2
20260504012004 50 142 0.0 0.0 0.00 0.00 0.00 62 1016.1
20260504011509 51 142 0.0 0.0 0.00 0.00 0.00 61 1016.1
20260504011007 51 142 0.0 0.0 0.00 0.00 0.00 60 1016.1
20260504010503 51 142 0.0 0.0 0.00 0.00 0.00 60 1016.1
20260504010009 51 142 0.0 0.0 0.00 0.00 0.00 60 1016.1
20260504005503 52 142 0.0 0.0 0.00 0.00 0.00 59 1016.0
20260504005005 52 142 0.0 0.0 0.00 0.00 0.00 59 1016.1
20260504004511 52 142 0.0 0.0 0.00 0.00 0.00 58 1016.1
20260504004004 52 142 0.0 0.0 0.00 0.00 0.00 58 1016.1
20260504003506 53 142 0.0 1.0 0.00 0.00 0.00 58 1016.0
20260504003007 53 142 0.0 1.0 0.00 0.00 0.00 57 1015.9
20260504002503 53 142 0.0 1.0 0.00 0.00 0.00 57 1015.9
20260504002006 54 142 0.0 1.0 0.00 0.00 0.00 56 1015.8
20260504001511 54 142 0.0 1.0 0.00 0.00 0.00 55 1015.8
20260504001004 55 142 0.0 1.0 0.00 0.00 0.00 54 1015.8
20260504000505 55 142 0.0 1.0 0.00 0.00 0.00 53 1015.8
20260504000014 56 142 0.0 1.0 0.00 0.00 0.00 52 1015.7
20260503235503 57 142 0.0 1.0 0.00 0.00 0.00 51 1015.6
20260503235004 57 142 0.0 1.0 0.00 0.00 0.00 50 1015.6
20260503234512 58 142 0.0 1.0 0.00 0.00 0.00 47 1015.6
20260503234006 58 142 0.0 0.0 0.00 0.00 0.00 44 1015.5
20260503233505 59 142 0.0 0.0 0.00 0.00 0.00 42 1015.5
20260503233009 59 142 0.0 0.0 0.00 0.00 0.00 41 1015.5
20260503232506 59 142 0.0 1.0 0.00 0.00 0.00 41 1015.6
20260503232011 60 142 0.0 1.0 0.00 0.00 0.00 40 1015.6
20260503231514 60 139 0.0 3.0 0.00 0.00 0.00 40 1015.6
20260503231004 60 139 0.0 3.0 0.00 0.00 0.00 38 1015.5
20260503230505 60 139 1.0 3.0 0.00 0.00 0.00 37 1015.4
20260503230014 61 76 0.0 4.0 0.00 0.00 0.00 37 1015.4
20260503225504 61 44 0.0 4.0 0.00 0.00 0.00 37 1015.5
20260503225004 61 24 1.0 4.0 0.00 0.00 0.00 37 1015.6
20260503224515 61 352 0.0 4.0 0.00 0.00 0.00 36 1015.6
20260503224007 61 350 1.0 5.0 0.00 0.00 0.00 36 1015.6
20260503223507 61 321 0.0 5.0 0.00 0.00 0.00 36 1015.6
20260503223008 61 138 1.0 5.0 0.00 0.00 0.00 35 1015.6
20260503222510 61 31 0.0 5.0 0.00 0.00 0.00 34 1015.6
20260503222006 61 318 2.0 5.0 0.00 0.00 0.00 34 1015.6
20260503221510 61 5 0.0 2.0 0.00 0.00 0.00 37 1015.6
20260503221008 61 163 0.0 3.0 0.00 0.00 0.00 35 1015.6
20260503220508 62 321 0.0 3.0 0.00 0.00 0.00 33 1015.7
20260503220009 62 321 0.0 4.0 0.00 0.00 0.00 34 1015.7
20260503215505 62 336 1.0 4.0 0.00 0.00 0.00 35 1015.7
20260503215008 62 200 0.0 8.0 0.00 0.00 0.00 36 1015.8
20260503214509 62 183 0.0 8.0 0.00 0.00 0.00 35 1015.7
20260503214008 62 161 1.0 4.0 0.00 0.00 0.00 33 1015.7
20260503213505 62 125 1.0 4.0 0.00 0.00 0.00 35 1015.7
20260503213025 62 26 0.0 6.0 0.00 0.00 0.00 34 1015.8
20260503212505 62 273 2.0 6.0 0.00 0.00 0.00 33 1015.7
20260503212006 62 156 0.0 6.0 0.00 0.00 0.00 33 1015.6
20260503211518 62 310 3.0 6.0 0.00 0.00 0.00 31 1015.7
20260503211011 62 5 2.0 8.0 0.00 0.00 0.00 32 1015.7
20260503210509 62 348 2.0 8.0 0.00 0.00 0.00 32 1015.8
20260503210014 62 311 3.0 8.0 0.00 0.00 0.00 32 1015.8
20260503205507 62 111 0.0 11.0 0.00 0.00 0.00 34 1015.7
20260503205010 62 360 2.0 11.0 0.00 0.00 0.00 30 1015.8
20260503204515 62 355 3.0 11.0 0.00 0.00 0.00 33 1015.8
20260503204010 62 350 1.0 11.0 0.00 0.00 0.00 32 1015.7
20260503203507 62 27 3.0 9.0 0.00 0.00 0.00 33 1015.8
20260503203016 62 311 0.0 13.0 0.00 0.00 0.00 33 1015.7
20260503202509 62 360 4.0 13.0 0.00 0.00 0.00 31 1016.0